Location: Melbourne
(37.8170°S, 144.9670°E)
Time: 19:47:36
(UTC+10:00)

CZ-3 R/B - Visible Passes

Search period start: 02 July 2015 00:00
Search period end: 12 July 2015 00:00
Orbit: 176 x 12823 km, 28.5° (Epoch: 01 July)

Date Brightness Start Highest point End Pass type
(mag) Time Alt. Az. Time Alt. Az. Time Alt. Az.
02 Jul 6.1 01:26:53 10° NNW 02:20:47 21° NNE 02:44:42 10° ENE visible
02 Jul 4.1 06:36:02 10° NW 06:58:08 35° N 07:04:12 10° ENE visible
03 Jul 6.0 01:40:26 10° NNW 02:38:14 23° NNE 03:00:33 10° ENE visible
03 Jul 3.9 06:51:44 10° WNW 07:12:28 37° N 07:18:05 10° ENE visible
04 Jul 5.9 01:53:37 10° NNW 02:54:14 26° NNE 03:15:04 10° ENE visible
04 Jul 3.7 07:06:27 10° WNW 07:25:52 38° N 07:31:07 10° ENE visible
05 Jul 5.9 02:06:15 10° NNW 03:08:53 28° NNE 03:28:24 10° ENE visible
06 Jul 5.8 02:18:14 10° NNW 03:22:18 31° NNE 03:40:40 10° ENE visible
07 Jul 5.8 02:29:28 10° NNW 03:34:35 33° NNE 03:51:56 10° ENE visible
08 Jul 5.7 02:39:56 10° NNW 03:45:47 36° NNE 04:02:13 10° ENE visible
09 Jul 5.5 02:49:33 10° NW 03:55:54 38° NNE 04:11:34 10° ENE visible
09 Jul 6.7 22:30:39 10° NNE 22:45:43 12° NNE 23:37:36 10° ENE visible
10 Jul 5.4 02:58:18 10° NW 04:05:01 40° NNE 04:20:01 10° ENE visible
10 Jul 6.7 22:29:00 10° NNE 22:59:13 14° NNE 23:52:00 10° ENE visible
11 Jul 5.3 03:06:09 10° NW 04:13:10 42° NNE 04:27:35 10° E visible
